This demonstration page uses our WeatherBlox Daily Observations layout. Learn more.

Left ArrowRight Arrow

Hourly Observations for August 14, 2021

Temp ( °F °C ) Dew Point ( °F °C ) Humidity (%) Winds ( mph kmh ) Pressure ( in mb ) Visibility ( mi km ) Precip ( " mm )
12:15 am 00:15 Mostly Cloudy 66 18.8 61 16.1 84 84 SE 5 7 30.22 1023 10 16 0.00 0.00
12:35 am 00:35 Mostly Cloudy 65 18.6 61 16.1 85 85 SSE 3 6 30.23 1024 10 16 0.00 0.00
12:55 am 00:55 Cloudy 66 19 61 16.3 84 84 SSE 6 9 30.21 1023 10 16 0.00 0.00
1:15 am 01:15 Cloudy 66 19.1 61 16.3 84 84 SSE 5 7 30.22 1023 10 16 0.00 0.00
1:35 am 01:35 Cloudy 67 19.3 61 16.1 82 82 SE 3 6 30.22 1023 10 16 0.00 0.00
1:55 am 01:55 Cloudy 66 19.1 62 16.4 84 84 SE 5 7 30.21 1023 10 16 0.00 0.00
2:15 am 02:15 Cloudy 66 18.7 61 16.1 85 85 SSE 3 6 30.22 1023 10 16 0.00 0.00
2:35 am 02:35 Cloudy 65 18.6 61 16 85 85 Calm 30.22 1023 10 16 0.00 0.00
2:55 am 02:55 Cloudy 65 18.6 61 16 85 85 SSE 3 6 30.22 1023 10 16 0.00 0.00
3:15 am 03:15 Cloudy 65 18.4 61 16 86 86 SE 3 6 30.22 1023 10 16 0.00 0.00
3:35 am 03:35 Mostly Cloudy 64 17.8 60 15.7 88 88 SE 5 7 30.22 1024 10 16 0.00 0.00
3:55 am 03:55 Mostly Cloudy 64 17.6 61 16 90 90 SSE 3 6 30.23 1024 10 16 0.00 0.00
4:15 am 04:15 Cloudy 65 18.1 61 16.2 89 89 Calm 30.22 1023 10 16 0.00 0.00
4:35 am 04:35 Cloudy 65 18.2 61 16.2 88 88 Calm 30.22 1023 10 16 0.00 0.00
4:55 am 04:55 Cloudy 66 18.7 61 16.2 85 85 Calm 30.22 1023 10 16 0.00 0.00
5:15 am 05:15 Cloudy 65 18.3 62 16.5 89 89 SSE 6 9 30.22 1023 10 16 0.00 0.00
5:35 am 05:35 Mostly Cloudy 65 18.4 61 16.2 87 87 S 6 9 30.22 1023 10 16 0.00 0.00
5:55 am 05:55 Partly Cloudy 65 18.1 61 16.2 89 89 S 5 7 30.22 1023 10 16 0.00 0.00
6:15 am 06:15 Partly Cloudy 64 18 61 16 88 88 Calm 30.22 1023 10 16 0.00 0.00
6:35 am 06:35 Clear 63 17.2 60 15.7 91 91 Calm 30.24 1024 10 16 0.00 0.00
6:55 am 06:55 Sunny 63 17.1 60 15.7 92 92 SE 3 6 30.23 1024 10 16 0.00 0.00
7:15 am 07:15 Partly Cloudy 61 16.3 60 15.3 94 94 ESE 5 7 30.25 1024 10 16 0.00 0.00
7:35 am 07:35 Mostly Cloudy 63 17.3 62 16.5 95 95 SE 3 6 30.24 1024 10 16 0.00 0.00
7:55 am 07:55 Cloudy 66 18.7 63 17.3 92 92 SE 5 7 30.23 1024 10 16 0.00 0.00
8:15 am 08:15 Cloudy 68 20 65 18.1 89 89 SSE 6 9 30.22 1023 10 16 0.00 0.00
8:35 am 08:35 Mostly Cloudy 69 20.7 66 19 90 90 SSE 7 11 30.21 1023 10 16 0.00 0.00
8:55 am 08:55 Cloudy 70 21 67 19.5 91 91 SE 9 15 30.22 1023 10 16 0.00 0.00
9:15 am 09:15 Mostly Cloudy 71 21.7 67 19.3 86 86 SSE 10 17 30.21 1023 10 16 0.00 0.00
9:35 am 09:35 Partly Cloudy 73 22.7 67 19.2 81 81 SSE 12 19 30.20 1023 10 16 0.00 0.00
9:55 am 09:55 Partly Cloudy 74 23.5 67 19.5 78 78 SSE 10 17 30.20 1023 10 16 0.00 0.00
10:15 am 10:15 Partly Cloudy 75 23.7 67 19.5 77 77 SSE 8 13 30.20 1023 10 16 0.00 0.00
10:35 am 10:35 Partly Cloudy 76 24.2 67 19.2 74 74 SSE 7 11 30.19 1022 10 16 0.00 0.00
10:55 am 10:55 Mostly Cloudy 76 24.4 66 19.1 72 72 S 9 15 30.18 1022 10 16 0.00 0.00
11:15 am 11:15 Partly Cloudy 77 24.9 67 19.3 71 71 SE 12 19 30.17 1022 10 16 0.00 0.00
11:35 am 11:35 Partly Cloudy 78 25.3 66 19.1 69 69 SSE 9 15 30.17 1022 10 16 0.00 0.00
11:55 am 11:55 Partly Cloudy 78 25.6 66 19.1 67 67 SSE 7 11 30.16 1021 10 16 0.00 0.00
12:15 pm 12:15 Mostly Cloudy 79 26.3 66 18.9 64 64 SSE 10 17 30.16 1021 10 16 0.00 0.00
12:35 pm 12:35 Partly Cloudy 79 26 65 18.5 63 63 SSE 9 15 30.15 1021 10 16 0.00 0.00
12:55 pm 12:55 Mostly Cloudy 80 26.4 66 18.7 63 63 SE 12 19 30.14 1021 10 16 0.00 0.00
1:15 pm 13:15 Mostly Cloudy 80 26.6 66 18.7 62 62 SE 10 17 30.13 1020 10 16 0.00 0.00
1:35 pm 13:35 Mostly Cloudy 81 27.1 65 18.6 60 60 SE 10 17 30.12 1020 10 16 0.00 0.00
1:55 pm 13:55 Partly Cloudy 80 26.8 65 18.3 60 60 SSE 8 13 30.11 1020 10 16 0.00 0.00
2:15 pm 14:15 Partly Cloudy 81 27.1 66 18.8 61 61 SSE 10 17 30.11 1020 10 16 0.00 0.00
2:35 pm 14:35 Partly Cloudy 81 27.3 65 18.6 59 59 SE 13 20 30.10 1019 10 16 0.00 0.00
2:55 pm 14:55 Partly Cloudy 82 28 65 18.6 57 57 SE 14 22 30.09 1019 10 16 0.00 0.00
3:15 pm 15:15 Partly Cloudy 82 28 65 18.1 55 55 SSE 9 15 30.09 1019 10 16 0.00 0.00
3:35 pm 15:35 Mostly Cloudy 82 27.6 65 18.4 57 57 SSE 9 15 30.08 1019 10 16 0.00 0.00
3:55 pm 15:55 Cloudy 82 27.8 66 18.7 58 58 SE 10 17 30.08 1019 10 16 0.00 0.00
4:15 pm 16:15 Partly Cloudy 83 28.3 65 18.5 55 55 SE 13 20 30.07 1018 10 16 0.00 0.00
4:35 pm 16:35 Partly Cloudy 83 28.4 65 18.4 55 55 SSE 12 19 30.06 1018 10 16 0.00 0.00
4:55 pm 16:55 Partly Cloudy 84 28.7 65 18.5 54 54 SSE 12 19 30.05 1017 10 16 0.00 0.00
5:15 pm 17:15 Partly Cloudy 83 28.5 65 18.6 55 55 SSE 10 17 30.05 1018 10 16 0.00 0.00
5:35 pm 17:35 Partly Cloudy 83 28.3 65 18.6 56 56 SE 12 19 30.05 1018 10 16 0.00 0.00
5:55 pm 17:55 Sunny 83 28.1 65 18.1 55 55 SE 13 20 30.03 1017 10 16 0.00 0.00
6:15 pm 18:15 Sunny 82 28 65 18.4 56 56 SE 13 20 30.02 1017 10 16 0.00 0.00
6:35 pm 18:35 Sunny 82 28 66 18.7 57 57 SE 10 17 30.01 1016 10 16 0.00 0.00
6:55 pm 18:55 Sunny 82 27.5 66 18.7 59 59 SE 12 19 30.02 1016 10 16 0.00 0.00
7:15 pm 19:15 Sunny 81 27.1 66 19 61 61 ESE 12 19 30.02 1017 10 16 0.00 0.00
7:35 pm 19:35 Sunny 79 26.1 67 19.2 66 66 ESE 9 15 30.03 1017 10 16 0.00 0.00
7:55 pm 19:55 Sunny 77 25.1 65 18.6 67 67 ESE 8 13 30.04 1017 10 16 0.00 0.00
8:15 pm 20:15 Sunny 76 24.4 66 18.7 71 71 ESE 9 15 30.04 1017 10 16 0.00 0.00
8:35 pm 20:35 Sunny 74 23.6 65 18.4 73 73 ESE 9 15 30.05 1018 10 16 0.00 0.00
8:55 pm 20:55 Clear 73 23 65 18.3 75 75 ESE 10 17 30.05 1018 10 16 0.00 0.00
9:15 pm 21:15 Clear 73 22.7 65 18.5 77 77 ESE 12 19 30.05 1018 10 16 0.00 0.00
9:35 pm 21:35 Clear 72 22.3 65 18.3 78 78 SE 10 17 30.06 1018 10 16 0.00 0.00
9:55 pm 21:55 Clear 72 22.1 65 18.5 80 80 SE 10 17 30.07 1018 10 16 0.00 0.00
10:15 pm 22:15 Clear 72 22 65 18.5 81 81 SE 12 19 30.06 1018 10 16 0.00 0.00
10:35 pm 22:35 Clear 72 22.1 65 18.5 80 80 SE 10 17 30.07 1018 10 16 0.00 0.00
10:55 pm 22:55 Clear 72 22 65 18.5 81 81 SE 14 22 30.06 1018 10 16 0.00 0.00
11:15 pm 23:15 Clear 71 21.8 65 18.3 81 81 SE 13 20 30.06 1018 10 16 0.00 0.00
11:35 pm 23:35 Clear 71 21.8 64 18 79 79 SE 10 17 30.06 1018 10 16 0.00 0.00
11:55 pm 23:55 Partly Cloudy 71 21.8 64 17.8 78 78 SSE 12 19 30.06 1018 10 16 0.00 0.00

Powered by AerisWeather